Home   Weather   Saratov   Past weeks

Flag for Russia Past Weather in Saratov, Russia — Yesterday and Last 2 Weeks

Now
19 °F

Light snow. Mostly cloudy.


Feels Like: 7 °F
Forecast: 17 / 20 °F
Wind: 13 mph from Northwest

Location: Saratov / Tsentralny

Current Time: Dec 3, 2016 at 9:47:45 am

Latest Report: Dec 3, 2016 at 9:00 am


Visibility: N/A

Pressure: 29.68 "Hg

Humidity: 79%

Dew Point: 14 °F

Location of SaratovLocation

Past Weather in Saratov — Graph

°F

Saratov Temperature Yesterday

Maximum temperature yesterday: 21 °F (at 12:00 am)
Minimum temperature yesterday: 18 °F (at 9:00 pm)
Average temperature yesterday: 20 °F

High & Low Weather Summary for the Past Weeks

 TemperatureHumidityPressure
High41 °F (Nov 28, 5:00 pm)100% (Nov 22, 5:00 am)31.19 "Hg (Nov 22, 5:00 am)
Low5 °F (Nov 21, 6:00 am)39% (Nov 23, 11:00 am)29.53 "Hg (Nov 28, 12:00 pm)
Average22 °F77%30.30 "Hg
* Reported Nov 18 8:00 am — Dec 3 8:30 am, Saratov, Weather by CustomWeather, © 2016

Note: Actual official high and low records may vary slightly from our data, if they occured in-between our weather recording intervals... More about our weather records

Advertising

Saratov Weather History for the Previous 24 Hours

Scroll right to see more
 ConditionsComfort  
Time TempWeatherWind HumidityBarometerVisibility
8:30 am
Sat, Dec 3
18 °FMostly cloudy.8 mph93%29.68 "HgN/A
8:00 am18 °FMostly cloudy.8 mph93%29.68 "HgN/A
7:30 am18 °FMostly cloudy.6 mph86%29.71 "HgN/A
7:00 am18 °FMostly cloudy.10 mph86%29.71 "HgN/A
6:30 am16 °FLight snow. Mostly cloudy.6 mph93%29.71 "HgN/A
6:00 am16 °FLight snow. Mostly cloudy.8 mph93%29.71 "HgN/A
5:30 am18 °FLight snow. Ice fog.8 mph93%29.71 "Hg3 mi
5:00 am18 °FLight snow. Ice fog.8 mph93%29.71 "Hg2 mi
4:30 am18 °FLight snow. Ice fog.8 mph93%29.71 "Hg2 mi
4:00 am18 °FLight snow. Ice fog.8 mph93%29.71 "Hg2 mi
3:00 am18 °FLight snow. Ice fog.8 mph93%29.74 "Hg1 mi
2:30 am18 °FLight snow. Ice fog.8 mph93%29.77 "Hg1 mi
2:00 am18 °FSnow. Ice fog.8 mph93%29.77 "Hg1 mi
1:30 am18 °FSnow. Ice fog.8 mph93%29.80 "Hg1 mi
1:00 am18 °FLight snow. Ice fog.8 mph93%29.80 "Hg1 mi
12:30 am18 °FLight snow. Ice fog.8 mph93%29.83 "Hg1 mi
12:00 am18 °FSnow. Ice fog.8 mph93%29.83 "Hg1 mi
11:30 pm
Fri, Dec 2
18 °FSnow. Ice fog.10 mph93%29.83 "Hg1 mi
11:00 pm18 °FSnow. Ice fog.10 mph93%29.83 "Hg1 mi
10:30 pm18 °FLight snow. Ice fog.10 mph93%29.83 "Hg1 mi
10:00 pm18 °FLight snow. Ice fog.10 mph93%29.83 "Hg1 mi
9:30 pm18 °FSnow. Ice fog.13 mph93%29.86 "Hg1 mi
9:00 pm18 °FSnow. Ice fog.13 mph93%29.86 "Hg1 mi
8:00 pm19 °FSnow. Ice fog.10 mph93%29.89 "Hg1 mi
7:30 pm19 °FSnow. Ice fog.10 mph93%29.89 "Hg1 mi
7:00 pm19 °FSnow. Ice fog.10 mph93%29.89 "Hg1 mi
6:30 pm19 °FSnow. Ice fog.6 mph86%29.92 "Hg1 mi
6:00 pm19 °FSnow. Ice fog.6 mph86%29.92 "Hg1 mi
5:30 pm19 °FSnow. Ice fog.13 mph93%29.92 "Hg1 mi
5:00 pm19 °FSnow. Ice fog.10 mph93%29.92 "Hg1 mi
4:30 pm19 °FSnow. Ice fog.13 mph93%29.92 "Hg1 mi
4:00 pm19 °FSnow. Ice fog.10 mph93%29.92 "Hg1 mi
3:30 pm21 °FSnow. Ice fog.10 mph86%29.95 "Hg1 mi
3:00 pm21 °FSnow. Ice fog.13 mph86%29.95 "Hg1 mi
2:30 pm21 °FSnow. Ice fog.13 mph86%29.98 "Hg1 mi
2:00 pm21 °FLight snow. Ice fog.10 mph86%29.98 "Hg2 mi
1:30 pm21 °FSnow. Ice fog.10 mph80%29.98 "Hg1 mi
1:01 pm21 °FLight snow. Ice fog.10 mph80%29.98 "Hg1 mi
12:30 pm21 °FMostly cloudy.10 mph80%29.98 "HgN/A
12:00 pm21 °FOvercast.13 mph80%29.98 "HgN/A
11:30 am21 °FSunny.10 mph80%30.01 "Hg10 mi
11:00 am21 °FSunny.10 mph80%30.01 "Hg10 mi
10:30 am19 °FSunny.13 mph79%30.01 "Hg10 mi
10:00 am19 °FSunny.13 mph79%30.01 "Hg10 mi
9:30 am19 °FSunny.13 mph79%30.04 "Hg10 mi
9:00 am19 °FSunny.13 mph79%30.04 "Hg10 mi
Weather by CustomWeather, © 2016

See weather overviewHow to use our weather pages